This demonstration page uses our WeatherBlox Daily Observations layout. Learn more.

Left ArrowRight Arrow

Hourly Observations for October 28, 2016

Temp ( °F °C ) Dew Point ( °F °C ) Humidity (%) Winds ( mph kmh ) Pressure ( in mb ) Visibility ( mi km ) Precip ( " mm )
12:17 am 00:17 Cloudy 45 7 43 6 93 93 N N/A 30.27 1025 10 16.0934 N/A
12:36 am 00:36 Cloudy 45 7 41 5 87 87 N N/A 30.3 1026 10 16.0934 N/A
12:57 am 00:57 Cloudy 43 6 41 5 93 93 N N/A 30.27 1025 10 16.0934 N/A
1:17 am 01:17 Cloudy 43 6 41 5 93 93 N N/A 30.27 1025 10 16.0934 N/A
1:37 am 01:37 Partly Cloudy 43 6 41 5 93 93 N N/A 30.27 1025 10 16.0934 N/A
1:57 am 01:57 Clear 41 5 39 4 93 93 N N/A 30.3 1026 10 16.0934 N/A
2:17 am 02:17 Partly Cloudy 43 6 39 4 87 87 N N/A 30.27 1025 10 16.0934 N/A
2:37 am 02:37 Clear 43 6 39 4 87 87 N N/A 30.27 1025 10 16.0934 N/A
2:57 am 02:57 Clear 41 5 39 4 93 93 N N/A 30.3 1026 10 16.0934 N/A
3:17 am 03:17 Clear 41 5 39 4 93 93 N N/A 30.3 1026 10 16.0934 N/A
3:37 am 03:37 Clear 41 5 39 4 93 93 N N/A 30.3 1026 10 16.0934 N/A
3:57 am 03:57 Clear 39 4 39 4 100 100 N N/A 30.3 1026 7 11.26538 N/A
4:16 am 04:16 Clear 41 5 39 4 93 93 N N/A 30.3 1026 7 11.26538 N/A
4:37 am 04:37 Clear 39 4 39 4 100 100 N N/A 30.3 1026 7 11.26538 N/A
4:57 am 04:57 Clear 39 4 37 3 93 93 N N/A 30.3 1026 4 6.43736 N/A
5:16 am 05:16 Clear 37 3 37 3 100 100 N N/A 30.3 1026 3 4.82802 N/A
5:37 am 05:37 Clear 39 4 39 4 100 100 N N/A 30.3 1026 7 11.26538 N/A
5:57 am 05:57 Clear 37 3 37 3 100 100 N N/A 30.33 1027 5 8.0467 N/A
6:17 am 06:17 Clear 39 4 37 3 93 93 N N/A 30.33 1027 5 8.0467 N/A
6:37 am 06:37 Clear 37 3 37 3 100 100 N N/A 30.33 1027 5 8.0467 N/A
6:57 am 06:57 Clear 37 3 37 3 100 100 N N/A 30.36 1028 2 3.21868 N/A
7:17 am 07:17 Clear 37 3 37 3 100 100 N N/A 30.36 1028 2.5 4.02335 N/A
7:37 am 07:37 Clear 37 3 36 2 93 93 N N/A 30.36 1028 3 4.82802 N/A
7:57 am 07:57 Clear 37 3 36 2 93 93 N N/A 30.36 1028 2.5 4.02335 N/A
8:16 am 08:16 Sunny 36 2 36 2 100 100 N N/A 30.33 1027 2.5 4.02335 N/A
8:37 am 08:37 Sunny 39 4 39 4 100 100 SSE 5 7 30.33 1027 4 6.43736 N/A
8:57 am 08:57 Sunny 41 5 41 5 100 100 SE 3 6 30.33 1027 5 8.0467 N/A
9:17 am 09:17 Sunny 43 6 41 5 93 93 SSE 3 6 30.33 1027 5 8.0467 N/A
9:37 am 09:37 Sunny 45 7 43 6 93 93 SE 5 7 30.33 1027 10 16.0934 N/A
9:57 am 09:57 Sunny 46 8 43 6 87 87 SE 6 9 30.33 1027 10 16.0934 N/A
10:17 am 10:17 Sunny 48 9 43 6 82 82 SSE 9 15 30.33 1027 10 16.0934 N/A
10:37 am 10:37 Sunny 50 10 43 6 76 76 SSE 9 15 30.3 1026 10 16.0934 N/A
10:57 am 10:57 Sunny 50 10 43 6 76 76 SSE 8 13 30.3 1026 10 16.0934 N/A
11:17 am 11:17 Sunny 52 11 45 7 77 77 S 9 15 30.3 1026 10 16.0934 N/A
11:37 am 11:37 Sunny 54 12 45 7 72 72 S 12 19 30.3 1026 10 16.0934 N/A
11:57 am 11:57 Sunny 55 13 45 7 67 67 S 9 15 30.3 1026 10 16.0934 N/A
12:17 pm 12:17 Sunny 55 13 46 8 72 72 SSW 9 15 30.3 1026 10 16.0934 N/A
12:37 pm 12:37 Sunny 55 13 45 7 67 67 S 10 17 30.3 1026 10 16.0934 N/A
12:57 pm 12:57 Sunny 57 14 46 8 67 67 S 12 19 30.24 1024 10 16.0934 N/A
1:17 pm 13:17 Sunny 59 15 46 8 63 63 S 9 15 30.24 1024 10 16.0934 N/A
1:37 pm 13:37 Sunny 59 15 46 8 63 63 S 7 11 30.21 1023 10 16.0934 N/A
1:57 pm 13:57 Sunny 61 16 46 8 59 59 SSW 12 19 30.21 1023 10 16.0934 N/A
2:16 pm 14:16 Sunny 61 16 46 8 59 59 S 8 13 30.18 1022 10 16.0934 N/A
2:37 pm 14:37 Sunny 63 17 46 8 56 56 S 9 15 30.18 1022 10 16.0934 N/A
2:57 pm 14:57 Sunny 63 17 46 8 56 56 S 12 19 30.18 1022 10 16.0934 N/A
3:17 pm 15:17 Sunny 63 17 46 8 56 56 S 8 13 30.18 1022 10 16.0934 N/A
3:37 pm 15:37 Sunny 63 17 46 8 56 56 S 10 17 30.18 1022 10 16.0934 N/A
3:57 pm 15:57 Sunny 63 17 48 9 59 59 S 9 15 30.18 1022 10 16.0934 N/A
4:17 pm 16:17 Sunny 63 17 48 9 59 59 S 8 13 30.18 1022 10 16.0934 N/A
4:37 pm 16:37 Sunny 63 17 48 9 59 59 S 10 17 30.18 1022 10 16.0934 N/A
4:57 pm 16:57 Sunny 63 17 48 9 59 59 S 12 19 30.15 1021 10 16.0934 N/A
5:17 pm 17:17 Sunny 63 17 48 9 59 59 S 12 19 30.15 1021 10 16.0934 N/A
5:37 pm 17:37 Sunny 63 17 48 9 59 59 S 9 15 30.15 1021 10 16.0934 N/A
5:57 pm 17:57 Sunny 63 17 48 9 59 59 S 9 15 30.15 1021 10 16.0934 N/A
6:37 pm 18:37 Sunny 59 15 48 9 68 68 S 8 13 30.15 1021 10 16.0934 N/A
6:57 pm 18:57 Clear 59 15 48 9 68 68 S 7 11 30.15 1021 10 16.0934 N/A
7:17 pm 19:17 Clear 57 14 48 9 72 72 S 7 11 30.15 1021 10 16.0934 N/A
7:37 pm 19:37 Clear 57 14 48 9 72 72 S 7 11 30.15 1021 10 16.0934 N/A
7:57 pm 19:57 Clear 57 14 46 8 67 67 S 7 11 30.15 1021 10 16.0934 N/A
8:17 pm 20:17 Clear 57 14 46 8 67 67 S 6 9 30.15 1021 10 16.0934 N/A
8:37 pm 20:37 Clear 55 13 46 8 72 72 S 7 11 30.15 1021 10 16.0934 N/A
8:57 pm 20:57 Clear 57 14 46 8 67 67 S 8 13 30.15 1021 10 16.0934 N/A
9:17 pm 21:17 Clear 57 14 46 8 67 67 S 8 13 30.15 1021 10 16.0934 N/A
9:37 pm 21:37 Clear 55 13 46 8 72 72 S 9 15 30.15 1021 10 16.0934 N/A
9:57 pm 21:57 Clear 55 13 46 8 72 72 S 7 11 30.12 1020 10 16.0934 N/A
10:17 pm 22:17 Clear 55 13 46 8 72 72 S 8 13 30.12 1020 10 16.0934 N/A
10:37 pm 22:37 Clear 55 13 46 8 72 72 S 8 13 30.12 1020 10 16.0934 N/A
10:57 pm 22:57 Clear 55 13 46 8 72 72 S 8 13 30.12 1020 10 16.0934 N/A
11:17 pm 23:17 Clear 55 13 46 8 72 72 S 7 11 30.12 1020 10 16.0934 N/A
11:37 pm 23:37 Clear 54 12 46 8 77 77 S 6 9 30.15 1021 10 16.0934 N/A
11:57 pm 23:57 Clear 54 12 46 8 77 77 S 7 11 30.15 1021 10 16.0934 N/A

Powered by AerisWeather